Terminal Aerodrome Forecast
Issued by NWS

Home | Current Version | Previous Version | Text Only | Print | Product List | Glossary On
Versions: 1 2 3 4 5 6 7 8 9 10 11 12 13 14 15 16 17 18 19 20 21 22 23 24 25 26 27 28 29
000
FTUS45 KSLC 051120
TAF36U
TAF
K36U 051120Z 0512/0612 VRB04KT P6SM SCT200
     FM051700 20013G20KT P6SM SCT080 BKN200
     FM060100 28011KT P6SM SCT100 BKN150
     FM060500 VRB03KT P6SM SKC=

USA.gov is the U.S. government's official web portal to all federal, state and local government web resources and services.